Weather History for KFHU - November, 2014

Change the Weather History Date:

Thursday, November 13, 2014

  Actual Average Record
Temperature  
Mean Temperature 60 °F -  
Max Temperature 73 °F 66 °F 79 °F (1984)
Min Temperature 48 °F 45 °F 29 °F (1982)
Degree Days  
Heating Degree Days 4    
Growing Degree Days 10 (Base 50)    
Moisture  
Dew Point 43 °F    
Average Humidity 60    
Maximum Humidity 87    
Minimum Humidity 27    
Precipitation  
Precipitation 0.00 in - - ()
Sea Level Pressure  
Sea Level Pressure 30.00 in    
Wind  
Wind Speed 5 mph (West)    
Max Wind Speed 13 mph    
Max Gust Speed 22 mph    
Visibility 10 miles    
Events      
Averages and records for this station are not official NWS values.
T = Trace of Precipitation, MM = Missing Value Source: NWS Daily Summary

Daily Weather History Graph

Daily Weather History Graph

Search for Another Location

Airport or City:

Trip Planner

Search our weather history database for the weather conditions in past years. The results will help you decide how hot, cold, wet, or windy it might be!

Date:

Astronomy

Nov. 13, 2014 Rise Set
Actual Time 6:47 AM MST 5:23 PM MST
Civil Twilight 6:21 AM MST 5:49 PM MST
Nautical Twilight 5:52 AM MST 6:18 PM MST
Astronomical Twilight 5:23 AM MST 6:47 PM MST
Moon 11:36 PM MST (11/13) 12:14 PM MST (11/13)
Length of Visible Light 11h 27m
Length of Day
10h 35m
Waning Gibbous, 58% of the Moon is Illuminated
Nov 13
Waning Gibbous
Nov 14
Last Quarter
Nov 22
New
Nov 29
First Quarter
Dec 6
Full

Hourly Weather History & Observations

Time (MST) Temp. Dew Point Humidity Pressure Visibility Wind Dir Wind Speed Gust Speed Precip Events Conditions
12:55 AM 53.6 °F 44.6 °F 72% 29.97 in 10.0 mi NE 8.1 mph - N/A   Clear
1:55 AM 48.2 °F 44.6 °F 87% 29.99 in 10.0 mi Calm Calm - N/A   Clear
2:55 AM 51.8 °F 44.6 °F 76% 29.98 in 10.0 mi Calm Calm - N/A   Clear
3:55 AM 48.2 °F 44.6 °F 87% 29.99 in 10.0 mi Calm Calm - N/A   Clear
4:55 AM 48.2 °F 42.8 °F 82% 30.00 in 10.0 mi Variable 3.5 mph - N/A   Partly Cloudy
5:55 AM 48.2 °F 44.6 °F 87% 30.02 in 10.0 mi SW 3.5 mph - N/A   Partly Cloudy
6:55 AM 48.2 °F 44.6 °F 87% 30.05 in 10.0 mi West 3.5 mph - N/A   Partly Cloudy
7:55 AM 53.6 °F 46.4 °F 77% 30.04 in 10.0 mi West 3.5 mph - N/A   Partly Cloudy
8:55 AM 57.2 °F 48.2 °F 72% 30.05 in 10.0 mi Calm Calm - N/A   Partly Cloudy
9:55 AM 60.8 °F 46.4 °F 59% 30.04 in 10.0 mi North 4.6 mph - N/A   Scattered Clouds
10:55 AM 66.2 °F 41.0 °F 40% 30.04 in 10.0 mi NNE 4.6 mph - N/A   Scattered Clouds
11:55 AM 69.8 °F 39.2 °F 33% 29.99 in 10.0 mi Variable 4.6 mph - N/A   Scattered Clouds
12:55 PM 71.6 °F 37.4 °F 29% 29.96 in 10.0 mi WSW 12.7 mph 16.1 mph N/A   Partly Cloudy
1:55 PM 73.4 °F 39.2 °F 29% 29.97 in 10.0 mi West 10.4 mph 21.9 mph N/A   Partly Cloudy
2:55 PM 71.6 °F 35.6 °F 27% 29.96 in 10.0 mi West 11.5 mph 20.7 mph N/A   Scattered Clouds
3:55 PM 71.6 °F 37.4 °F 29% 29.97 in 10.0 mi West 11.5 mph - N/A   Mostly Cloudy
4:55 PM 68.0 °F 42.8 °F 40% 29.98 in 10.0 mi WSW 9.2 mph - N/A   Mostly Cloudy
5:55 PM 62.6 °F 42.8 °F 48% 30.00 in 10.0 mi SW 6.9 mph - N/A   Scattered Clouds
6:55 PM 60.8 °F 44.6 °F 55% 30.02 in 10.0 mi WSW 6.9 mph - N/A   Partly Cloudy
7:55 PM 60.8 °F 44.6 °F 55% 30.00 in 10.0 mi West 5.8 mph - N/A   Partly Cloudy
8:55 PM 55.4 °F 42.8 °F 63% 30.00 in 10.0 mi Variable 4.6 mph - N/A   Scattered Clouds
9:55 PM 53.6 °F 42.8 °F 67% 30.00 in 10.0 mi Calm Calm - N/A   Partly Cloudy
10:55 PM 55.4 °F 44.6 °F 67% 29.99 in 10.0 mi Variable 2.3 mph - N/A   Partly Cloudy
11:55 PM 53.6 °F 44.6 °F 72% 29.99 in 10.0 mi NE 4.6 mph - N/A   Partly Cloudy